• In Czech Republic
  • List of Countries
  • For 7 days
  • Water Temperature
  • Satellite Maps
  • Weather Map
  • Weather Widgets
  • user-avatar
    Login

    Hourly Weather Sanctorum

    Today, 19 January, Friday

    Time Temperature Precipitation Wind Pressure Humidity
    00:00 +7°C° 0 mm 1 mps 554 mmHg 65%
    01:00 +7°C° 0 mm 1 mps 554 mmHg 64%
    02:00 +6°C° 0 mm 1 mps 554 mmHg 64%
    03:00 +6°C° 0 mm 1 mps 553 mmHg 63%
    04:00 +6°C° 0 mm 1 mps 553 mmHg 62%
    05:00 +6°C° 0 mm 1 mps 553 mmHg 61%
    06:00 +7°C° 0 mm 1 mps 554 mmHg 56%
    07:00 +8°C° 0 mm 1 mps 555 mmHg 51%
    08:00 +10°C° 0 mm 1 mps 556 mmHg 46%
    09:00 +12°C° 0 mm 1 mps 557 mmHg 41%
    10:00 +14°C° 0 mm 2 mps 557 mmHg 37%
    11:00 +15°C° 0 mm 2 mps 558 mmHg 32%
    12:00 +16°C° 0 mm 2 mps 557 mmHg 31%
    13:00 +16°C° 0 mm 3 mps 557 mmHg 31%
    14:00 +17°C° 0 mm 3 mps 556 mmHg 30%
    15:00 +16°C° 0 mm 3 mps 556 mmHg 36%
    16:00 +15°C° 0 mm 2 mps 555 mmHg 41%
    17:00 +14°C° 0 mm 2 mps 555 mmHg 47%
    18:00 +12°C° 0 mm 2 mps 555 mmHg 51%
    19:00 +11°C° 0 mm 1 mps 554 mmHg 55%
    20:00 +10°C° 0 mm 1 mps 554 mmHg 60%
    21:00 +10°C° 0 mm 1 mps 554 mmHg 61%
    22:00 +9°C° 0 mm 1 mps 554 mmHg 63%
    23:00 +9°C° 0 mm 1 mps 554 mmHg 64%

    Tomorrow, 20 January, Saturday

    Time Temperature Precipitation Wind Pressure Humidity
    00:00 +9°C° 0 mm 1 mps 553 mmHg 65%
    01:00 +8°C° 0 mm 1 mps 553 mmHg 66%
    02:00 +8°C° 0 mm 1 mps 553 mmHg 67%
    03:00 +8°C° 0 mm 1 mps 553 mmHg 68%
    04:00 +7°C° 0 mm 1 mps 552 mmHg 69%
    05:00 +7°C° 0 mm 1 mps 552 mmHg 70%
    06:00 +7°C° 0 mm 0 mps 553 mmHg 64%
    07:00 +9°C° 0 mm 0 mps 554 mmHg 59%
    08:00 +10°C° 0 mm 0 mps 556 mmHg 53%
    09:00 +12°C° 0 mm 0 mps 556 mmHg 46%
    10:00 +15°C° 0 mm 1 mps 557 mmHg 39%
    11:00 +16°C° 0 mm 1 mps 558 mmHg 31%
    12:00 +18°C° 0 mm 1 mps 557 mmHg 30%
    13:00 +17°C° 0 mm 2 mps 557 mmHg 28%
    14:00 +18°C° 0 mm 2 mps 556 mmHg 27%
    15:00 +17°C° 0 mm 2 mps 556 mmHg 31%
    16:00 +16°C° 0 mm 2 mps 555 mmHg 36%
    17:00 +15°C° 0 mm 2 mps 555 mmHg 40%
    18:00 +14°C° 0 mm 2 mps 555 mmHg 46%
    19:00 +12°C° 0 mm 1 mps 555 mmHg 51%
    20:00 +11°C° 0 mm 1 mps 554 mmHg 57%
    21:00 +11°C° 0 mm 1 mps 554 mmHg 57%
    22:00 +10°C° 0 mm 1 mps 554 mmHg 58%
    23:00 +10°C° 0 mm 1 mps 554 mmHg 59%

    Day after tomorrow, 21 January, Sunday

    Time Temperature Precipitation Wind Pressure Humidity
    00:00 +9°C° 0 mm 1 mps 553 mmHg 60%
    01:00 +9°C° 0 mm 1 mps 553 mmHg 62%
    02:00 +9°C° 0 mm 1 mps 553 mmHg 63%
    03:00 +8°C° 0 mm 1 mps 552 mmHg 64%
    04:00 +8°C° 0 mm 1 mps 552 mmHg 65%
    05:00 +8°C° 0 mm 1 mps 552 mmHg 67%
    06:00 +9°C° 0 mm 1 mps 553 mmHg 61%
    07:00 +10°C° 0 mm 1 mps 554 mmHg 56%
    08:00 +12°C° 0 mm 1 mps 555 mmHg 50%
    09:00 +14°C° 0 mm 1 mps 556 mmHg 42%
    10:00 +16°C° 0 mm 1 mps 557 mmHg 33%
    11:00 +18°C° 0 mm 2 mps 557 mmHg 24%
    12:00 +18°C° 0 mm 2 mps 557 mmHg 23%
    13:00 +19°C° 0 mm 2 mps 556 mmHg 21%
    14:00 +20°C° 0 mm 2 mps 556 mmHg 20%
    15:00 +19°C° 0 mm 2 mps 555 mmHg 25%
    16:00 +17°C° 0 mm 2 mps 555 mmHg 30%
    17:00 +16°C° 0 mm 2 mps 554 mmHg 34%
    18:00 +15°C° 0 mm 2 mps 554 mmHg 40%
    19:00 +13°C° 0 mm 1 mps 554 mmHg 45%
    20:00 +12°C° 0 mm 1 mps 554 mmHg 50%
    21:00 +12°C° 0 mm 1 mps 554 mmHg 50%
    22:00 +11°C° 0 mm 1 mps 554 mmHg 51%
    23:00 +11°C° 0 mm 1 mps 554 mmHg 51%

    22 January, Monday

    Time Temperature Precipitation Wind Pressure Humidity
    00:00 +10°C° 0 mm 1 mps 553 mmHg 52%
    01:00 +10°C° 0 mm 1 mps 553 mmHg 53%
    02:00 +10°C° 0 mm 1 mps 552 mmHg 53%
    03:00 +9°C° 0 mm 1 mps 552 mmHg 54%
    04:00 +9°C° 0 mm 1 mps 552 mmHg 55%
    05:00 +9°C° 0 mm 1 mps 552 mmHg 56%
    06:00 +10°C° 0 mm 1 mps 553 mmHg 52%
    07:00 +11°C° 0 mm 1 mps 555 mmHg 48%
    08:00 +13°C° 0 mm 1 mps 556 mmHg 45%
    09:00 +14°C° 0 mm 1 mps 556 mmHg 40%
    10:00 +16°C° 0 mm 2 mps 557 mmHg 36%
    11:00 +18°C° 0 mm 2 mps 558 mmHg 32%
    12:00 +18°C° 0 mm 3 mps 557 mmHg 33%
    13:00 +19°C° 0 mm 3 mps 557 mmHg 34%
    14:00 +19°C° 0 mm 3 mps 556 mmHg 35%
    15:00 +17°C° 0 mm 3 mps 556 mmHg 41%
    16:00 +16°C° 0 mm 3 mps 555 mmHg 48%
    17:00 +14°C° 0 mm 3 mps 555 mmHg 54%
    18:00 +13°C° 0 mm 3 mps 555 mmHg 61%
    19:00 +11°C° 0 mm 3 mps 555 mmHg 67%
    20:00 +10°C° 0 mm 3 mps 555 mmHg 74%
    21:00 +10°C° 0 mm 3 mps 555 mmHg 77%
    22:00 +9°C° 0 mm 3 mps 555 mmHg 80%
    23:00 +9°C° 0 mm 2 mps 554 mmHg 83%

    23 January, Tuesday

    Time Temperature Precipitation Wind Pressure Humidity
    00:00 +9°C° 0 mm 2 mps 554 mmHg 84%
    01:00 +8°C° 0 mm 2 mps 554 mmHg 85%
    02:00 +8°C° 0 mm 2 mps 553 mmHg 85%
    03:00 +8°C° 0 mm 2 mps 553 mmHg 86%
    04:00 +7°C° 0 mm 2 mps 553 mmHg 87%
    05:00 +8°C° 0 mm 1 mps 553 mmHg 88%
    06:00 +8°C° 0 mm 2 mps 554 mmHg 82%
    07:00 +9°C° 0 mm 2 mps 554 mmHg 77%
    08:00 +9°C° 0 mm 2 mps 555 mmHg 71%
    09:00 +12°C° 0 mm 2 mps 556 mmHg 61%
    10:00 +14°C° 0 mm 2 mps 556 mmHg 51%
    11:00 +16°C° 0 mm 2 mps 557 mmHg 41%
    12:00 +17°C° 0 mm 2 mps 557 mmHg 40%
    13:00 +17°C° 0 mm 2 mps 556 mmHg 39%
    14:00 +18°C° 0 mm 3 mps 556 mmHg 37%
    15:00 +17°C° 0 mm 3 mps 556 mmHg 42%
    16:00 +16°C° 0 mm 3 mps 555 mmHg 46%
    17:00 +14°C° 0 mm 3 mps 555 mmHg 50%
    18:00 +14°C° 0.1 mm 2 mps 555 mmHg 56%
    19:00 +13°C° 0.1 mm 2 mps 555 mmHg 62%
    20:00 +12°C° 0.1 mm 1 mps 555 mmHg 68%
    21:00 +11°C° 0 mm 1 mps 554 mmHg 70%
    22:00 +11°C° 0 mm 1 mps 554 mmHg 72%
    23:00 +10°C° 0 mm 1 mps 554 mmHg 74%

    24 January, Wednesday

    Time Temperature Precipitation Wind Pressure Humidity
    00:00 +10°C° 0 mm 1 mps 554 mmHg 76%
    01:00 +9°C° 0 mm 1 mps 553 mmHg 77%
    02:00 +9°C° 0 mm 1 mps 553 mmHg 79%
    03:00 +9°C° 0 mm 1 mps 553 mmHg 79%
    04:00 +8°C° 0 mm 1 mps 553 mmHg 80%
    05:00 +8°C° 0 mm 1 mps 553 mmHg 80%
    06:00 +8°C° 0 mm 0 mps 554 mmHg 75%
    07:00 +10°C° 0 mm 0 mps 555 mmHg 69%
    08:00 +11°C° 0 mm 0 mps 556 mmHg 63%
    09:00 +14°C° 0 mm 1 mps 556 mmHg 56%
    10:00 +15°C° 0 mm 1 mps 557 mmHg 48%
    11:00 +18°C° 0 mm 1 mps 557 mmHg 40%
    12:00 +19°C° 0.2 mm 1 mps 557 mmHg 40%
    13:00 +18°C° 0.2 mm 2 mps 557 mmHg 39%
    14:00 +18°C° 0.2 mm 2 mps 556 mmHg 38%
    15:00 +17°C° 0.6 mm 2 mps 556 mmHg 44%
    16:00 +16°C° 0.6 mm 2 mps 555 mmHg 50%
    17:00 +14°C° 0.6 mm 3 mps 555 mmHg 56%
    18:00 +13°C° 0.4 mm 3 mps 555 mmHg 63%
    19:00 +12°C° 0.4 mm 3 mps 555 mmHg 69%
    20:00 +10°C° 0.4 mm 3 mps 555 mmHg 75%
    21:00 +10°C° 0.2 mm 3 mps 555 mmHg 77%
    22:00 +9°C° 0.2 mm 3 mps 555 mmHg 78%
    23:00 +8°C° 0.2 mm 4 mps 555 mmHg 79%
    Show more